Theta_e
300 299 300 300 301 302 301 301 302 302 302 302 303 303 304 306 306 307 305 310 300 292 294 298 297 293 291 295 291 297 295 297 298 293 292 292 294 296 296 297 296 294 293 293 295 291 289 305 304 298 305 309 307 306
299 299 300 301 302 301 301 302 302 303 303 302 303 303 304 305 307 307 302 310 306 295 295 303 302 305 302 302 297 300 298 298 299 295 296 295 293 298 296 290 300 293 298 297 296 297 306 309 309 311 311 306 306 307
299 300 301 302 302 301 302 302 303 302 303 303 303 304 305 306 306 306 305 307 302 295 298 300 298 304 309 307 310 298 302 304 303 306 299 297 292 298 295 295 297 300 304 299 300 302 305 307 309 309 309 307 307 307
300 300 300 301 301 302 302 302 303 303 303 303 304 304 305 306 306 306 305 306 300 295 289 296 306 302 307 310 309 309 306 308 309 304 299 297 295 301 297 299 300 302 302 300 300 303 305 306 307 307 307 309 307 306
300 300 300 301 301 301 302 302 303 303 303 303 303 304 304 305 306 307 308 304 304 296 289 294 302 302 306 309 308 308 307 306 303 299 297 298 300 300 301 300 297 304 300 299 298 305 305 305 307 308 307 306 305 303
300 300 300 301 301 301 302 302 303 303 303 303 304 304 305 306 306 305 296 302 304 303 293 289 299 296 304 305 306 304 306 305 305 302 297 299 303 300 296 294 301 304 307 309 304 308 310 308 307 308 306 305 304 302
299 299 300 301 300 301 302 302 302 303 303 304 304 304 305 306 305 299 294 300 304 303 293 289 290 297 300 303 303 304 307 304 307 302 299 298 298 300 297 294 301 302 306 306 308 308 305 305 305 305 306 304 303 301
299 299 300 301 301 301 302 302 303 303 304 304 305 305 306 305 304 300 305 305 305 299 297 288 290 293 299 295 295 305 302 303 302 300 301 296 299 299 295 300 301 303 304 305 307 308 309 306 306 305 304 303 300 299
299 299 300 301 301 301 302 302 303 304 304 305 305 305 307 305 302 303 306 305 305 299 291 291 289 288 300 299 300 302 303 296 303 297 296 297 294 291 296 297 300 302 303 303 305 306 305 304 303 304 303 302 300 299
299 299 300 300 300 301 302 302 304 304 305 305 306 300 295 300 304 305 302 298 298 297 297 292 294 293 297 298 297 297 299 296 291 294 300 293 295 298 300 301 303 304 306 304 302 302 303 302 301 302 301 302 302 300
299 299 300 300 300 301 302 303 304 305 305 302 298 296 302 305 304 299 294 294 296 293 297 297 298 293 302 294 295 300 294 298 290 293 292 292 292 297 301 303 305 306 307 306 306 306 306 304 302 301 301 301 301 300
299 299 300 299 300 301 303 303 305 303 302 300 300 303 303 299 296 292 292 295 293 289 294 293 296 300 301 303 295 297 292 295 287 297 292 289 296 300 301 302 305 306 304 305 307 304 304 303 304 302 301 301 301 300
299 299 300 299 300 301 302 304 304 304 304 305 300 296 294 295 288 287 286 290 292 296 296 296 295 298 301 300 296 293 288 291 298 293 291 295 301 303 303 304 304 306 305 305 304 305 304 303 302 302 301 301 300 299
299 299 299 299 301 301 301 302 304 305 303 296 292 288 289 289 290 290 290 289 294 294 296 297 296 296 297 294 294 288 292 293 288 287 289 299 301 302 305 304 303 302 304 303 302 301 301 301 300 300 299 299 299 298
298 299 300 300 300 300 301 302 303 306 300 292 292 287 289 292 293 292 295 295 296 298 297 296 297 295 292 291 292 290 287 285 290 290 295 301 302 303 303 304 302 302 302 301 301 300 299 298 297 297 298 299 298 298
298 299 300 299 300 300 301 304 306 306 300 295 293 290 293 291 290 291 293 293 298 298 297 297 291 288 289 290 287 285 286 287 292 295 301 303 301 303 303 304 303 303 301 301 300 298 298 297 297 297 297 297 297 297
298 296 299 300 300 300 302 303 304 296 294 291 290 296 292 291 289 292 295 296 301 295 291 293 287 288 295 289 287 293 289 294 298 298 299 302 303 301 303 302 302 302 301 300 299 298 298 298 298 297 295 296 296 296
296 299 301 300 300 301 304 304 297 294 290 296 292 294 298 299 296 296 298 299 297 294 293 291 297 291 290 286 290 295 297 296 298 299 301 301 300 302 302 302 301 302 300 299 298 298 297 297 297 296 296 296 296 296
298 299 299 299 299 297 294 297 299 289 294 298 297 298 298 302 304 304 302 302 300 298 296 294 290 290 291 293 291 292 292 294 295 296 298 299 302 302 301 301 300 299 299 298 298 297 298 299 297 297 296 297 295 295
298 299 300 300 300 295 292 294 302 292 293 295 299 296 297 299 304 303 302 302 299 296 292 290 290 291 289 291 293 293 296 297 297 295 297 300 301 301 300 298 298 299 298 298 298 295 298 297 298 297 298 297 295 294
299 301 300 302 300 299 296 295 295 295 295 293 297 296 296 300 302 300 299 304 298 294 293 295 294 296 301 301 301 301 301 301 299 298 297 296 299 299 298 298 299 298 297 296 296 295 295 296 297 297 297 297 296 296
300 299 300 302 297 296 295 299 295 296 295 294 295 297 294 294 296 300 302 299 297 296 298 298 297 298 300 301 303 304 304 303 303 300 297 297 298 298 298 298 297 297 297 297 297 296 297 297 298 298 297 295 294 294
299 299 297 297 292 292 291 301 293 294 291 293 296 293 294 298 302 303 295 296 298 300 301 300 300 301 302 304 304 304 304 303 300 300 300 300 300 300 299 298 299 298 297 298 299 298 297 293 294 296 295 295 294 292
297 293 292 291 292 289 295 292 295 294 295 293 293 290 294 297 300 298 293 294 298 299 299 297 298 301 303 302 301 301 301 302 300 300 301 299 298 299 300 299 300 300 300 299 299 298 297 296 293 296 296 295 295 294
288 289 291 287 292 290 288 289 291 292 289 291 289 292 296 300 294 293 292 294 296 295 295 296 299 299 300 299 301 302 303 300 298 298 300 300 299 300 299 300 300 300 300 299 297 298 297 297 297 296 296 296 294 292
284 290 288 288 291 289 290 287 289 290 292 290 292 296 296 293 290 289 293 294 295 294 293 293 293 295 300 301 300 299 300 302 300 298 300 301 300 299 297 296 296 298 301 300 298 297 297 297 297 295 294 291 285 290
284 286 291 296 295 295 293 295 296 294 289 288 293 291 291 287 289 291 296 298 296 296 296 296 295 296 300 301 302 303 304 303 302 301 303 303 302 302 301 298 297 299 301 300 299 298 297 296 295 294 293 292 291 291
290 290 287 291 291 294 290 292 290 289 293 297 294 288 287 288 289 296 298 300 301 297 299 297 299 300 302 304 304 303 303 303 302 302 301 301 302 303 303 303 302 289 300 300 300 299 299 298 296 294 292 290 289 290
290 292 292 289 291 292 293 292 293 295 297 296 292 291 291 296 300 300 301 301 303 301 298 296 297 302 302 303 304 303 302 301 299 296 296 295 295 296 299 299 299 299 297 293 282 290 295 294 293 292 290 290 289 289
291 295 291 291 290 290 296 299 296 299 300 299 299 298 297 297 300 304 300 300 299 299 298 297 299 300 299 300 300 300 303 304 302 300 297 296 297 298 298 297 296 295 295 294 292 290 283 289 287 289 288 288 288 287
294 294 291 292 291 295 299 300 299 297 296 295 296 294 294 297 300 301 301 300 300 299 295 295 295 301 300 299 300 299 298 303 302 302 302 300 298 297 297 296 296 296 296 294 293 291 289 289 289 288 287 286 285 285
292 291 290 288 292 298 298 294 294 292 292 291 291 294 295 295 291 297 303 302 299 297 291 294 294 293 300 299 302 301 292 300 300 299 298 298 297 297 297 298 297 296 295 293 292 291 289 288 288 287 285 284 284 284
291 293 293 293 292 291 294 292 291 289 290 289 292 294 294 292 290 297 302 302 298 297 295 295 294 293 293 295 296 295 292 294 289 285 286 286 287 291 296 295 294 293 291 291 290 289 288 286 286 284 283 282 281 281
Wind_Speed
18 19 19 21 22 23 19 20 21 21 21 21 20 21 21 20 20 12 9 7 2 3 10 8 1 7 7 5 6 5 3 1 4 2 2 3 5 6 11 10 13 11 7 7 8 5 4 7 6 2 8 10 13 14
18 19 19 21 21 18 19 20 21 21 20 20 21 21 21 20 20 13 6 3 1 4 7 18 19 18 16 15 3 6 5 3 3 3 4 2 3 4 12 5 6 7 6 4 4 5 8 9 10 10 8 12 12 13
18 19 20 20 18 18 20 20 21 21 21 21 21 21 21 21 20 12 6 4 2 3 10 5 4 4 8 6 6 5 4 8 6 6 5 2 4 4 3 5 7 6 5 4 8 9 11 11 10 14 15 15 14 11
18 19 20 20 19 19 20 21 20 21 21 20 20 20 21 20 19 14 6 2 2 2 4 3 4 9 8 10 12 10 10 10 9 4 4 3 3 3 3 6 6 3 6 6 8 14 13 9 15 16 16 14 14 13
19 19 20 21 19 20 20 20 21 21 21 22 21 21 21 22 19 11 4 2 4 2 3 7 12 8 12 10 7 2 4 7 5 3 3 3 3 6 4 4 6 4 4 4 4 10 8 12 12 17 15 15 14 14
19 20 21 21 19 19 21 21 21 21 21 22 22 22 22 19 15 5 2 1 4 2 2 3 3 6 8 5 7 5 3 4 3 3 3 4 5 6 2 3 8 9 11 8 8 9 15 15 13 16 16 15 14 14
19 20 21 21 20 20 20 21 22 22 22 23 22 21 20 13 5 2 2 4 4 2 2 3 2 4 7 6 4 1 2 1 2 2 2 2 4 6 4 3 7 3 10 7 6 12 16 15 16 13 17 17 15 14
19 21 21 21 19 20 21 22 23 23 23 23 22 21 13 5 4 2 2 2 2 2 2 2 1 1 3 1 1 2 1 2 2 3 0 2 2 3 2 9 6 3 1 6 9 10 14 13 16 17 16 15 15 13
19 20 21 19 20 20 21 22 23 24 23 24 24 20 4 4 2 2 5 2 1 2 2 2 3 3 3 1 3 1 2 2 1 1 1 2 2 2 2 2 5 4 1 9 16 16 15 17 17 16 15 13 13 13
18 19 21 20 20 21 22 23 23 24 24 24 11 1 2 1 2 4 3 3 3 2 2 2 1 2 3 2 1 3 3 1 2 3 1 2 1 3 4 1 5 5 8 2 14 13 13 14 14 14 12 11 11 11
19 19 20 21 21 22 22 21 23 22 16 4 4 3 6 1 3 4 3 3 3 2 3 1 5 2 1 2 3 1 2 1 1 3 1 3 2 2 8 7 5 8 6 5 4 10 11 14 12 12 12 11 11 12
19 19 19 20 21 22 20 23 20 9 6 7 6 7 4 4 4 4 3 2 1 3 2 2 2 2 2 1 2 2 3 2 3 3 2 2 4 5 11 9 6 9 8 5 12 16 17 14 14 12 10 10 12 13
18 18 18 19 20 19 21 20 16 13 16 3 4 3 2 3 3 3 3 3 3 6 5 3 1 1 2 2 1 1 3 1 0 3 1 2 6 8 13 10 7 7 15 14 14 15 16 14 13 12 12 11 11 11
18 19 19 18 16 18 19 20 18 12 6 3 3 4 3 3 6 5 5 3 4 3 6 5 2 4 3 2 2 3 2 3 3 4 4 4 10 13 13 11 12 13 14 16 16 14 14 13 12 12 12 11 10 9
18 19 18 10 14 18 20 20 17 6 3 3 4 4 3 4 3 4 4 3 1 4 3 3 2 2 1 2 1 3 1 4 3 4 5 6 7 11 11 11 11 14 12 12 13 13 13 13 13 13 12 11 10 9
18 20 1 8 15 20 22 17 6 3 2 2 2 3 3 2 2 2 2 3 3 1 1 2 2 3 3 1 2 2 4 2 4 4 3 8 7 10 5 8 11 11 12 12 12 13 14 14 14 13 12 11 10 10
15 4 6 10 15 22 16 5 3 3 2 2 3 4 3 2 3 3 2 3 2 1 2 1 4 2 3 3 4 2 1 3 5 5 4 6 5 2 7 11 11 11 12 13 13 13 14 13 12 11 11 11 11 10
10 10 11 14 15 12 4 3 3 3 3 3 2 0 5 4 5 4 3 3 1 1 2 2 4 2 2 1 1 4 5 3 4 3 6 9 2 3 8 11 12 12 13 13 13 12 12 11 10 9 10 10 9 9
12 13 18 16 9 5 4 2 2 3 4 4 4 2 3 2 1 2 1 4 2 1 2 3 3 3 3 3 3 3 2 2 3 6 8 9 10 10 11 12 13 13 13 13 12 9 8 8 8 7 7 6 6 5
18 18 14 8 5 2 4 2 3 3 4 3 5 3 5 4 1 1 1 4 3 1 1 1 2 2 3 4 5 4 5 6 7 7 8 8 8 11 11 11 10 12 11 11 9 7 7 7 7 6 4 5 5 5
8 3 7 3 4 4 4 2 4 3 4 4 4 6 4 4 3 0 2 3 2 1 0 1 2 6 4 2 4 9 12 11 9 9 10 9 10 10 10 10 11 9 8 8 8 7 5 6 6 6 6 4 6 7
2 6 3 4 4 4 4 3 3 5 4 4 6 3 3 2 4 1 3 1 2 2 2 2 2 4 3 1 11 10 9 6 7 8 10 9 9 9 10 9 8 9 8 7 7 6 7 6 6 5 7 6 5 5
5 2 3 4 3 0 4 2 3 2 4 3 3 4 3 1 1 2 3 3 4 2 5 6 4 7 7 7 11 7 6 9 9 9 9 8 9 9 9 9 8 8 8 7 6 6 7 8 6 6 6 5 5 5
2 3 4 3 4 4 2 3 3 4 3 3 3 3 0 1 3 1 2 3 1 4 5 7 5 3 5 6 7 5 6 3 6 6 7 9 9 9 9 8 7 7 6 6 7 7 7 6 7 6 5 5 4 3
3 4 4 4 4 4 4 4 5 5 4 2 3 2 2 3 1 2 2 3 4 3 5 5 6 3 3 4 6 7 7 7 6 7 6 8 8 7 7 6 7 8 7 8 8 8 7 7 5 5 4 3 3 3
3 3 3 3 2 4 3 3 2 2 2 3 3 3 3 4 3 2 3 2 2 2 2 4 4 5 3 3 8 7 7 7 7 6 7 8 7 7 8 8 8 7 6 7 7 7 7 6 5 5 6 5 4 1
3 5 4 4 3 3 5 5 4 2 1 0 2 3 3 3 2 3 2 1 1 0 1 3 3 5 3 2 5 8 6 6 7 7 5 4 4 6 7 8 9 7 6 7 7 7 6 6 6 5 5 4 4 2
5 3 5 0 4 4 6 4 2 2 1 0 1 3 1 3 3 0 2 3 3 3 1 2 4 5 6 1 5 7 7 8 10 10 8 6 5 6 7 7 9 9 6 4 5 6 5 5 5 5 4 4 5 3
5 3 2 6 2 4 5 3 1 2 2 2 3 2 2 2 2 4 3 2 3 3 2 1 3 7 3 4 5 8 8 8 9 12 11 8 7 6 6 8 8 7 7 9 15 10 7 4 5 6 5 4 5 4
7 5 4 5 5 5 1 3 3 4 3 5 4 6 5 3 1 1 5 1 3 2 2 1 5 5 5 7 7 6 5 4 5 6 6 8 9 8 8 8 8 8 7 7 8 9 7 7 6 6 5 5 4 3
1 2 4 5 3 0 2 1 1 3 3 4 5 6 7 4 3 1 2 2 3 4 2 3 3 7 3 5 6 7 5 3 4 4 8 9 9 8 8 8 7 6 6 7 7 7 7 6 5 5 5 5 5 1
2 5 4 3 2 2 1 2 2 2 2 2 2 4 3 3 2 3 2 1 3 4 2 3 4 1 4 4 4 6 8 7 6 7 11 9 9 9 8 6 6 6 6 6 5 6 5 5 6 5 5 5 5 4
4 5 3 2 1 3 3 4 2 3 3 3 4 3 3 2 1 2 3 4 3 4 4 4 5 5 3 5 6 5 10 10 12 12 13 11 8 6 7 6 6 6 7 6 5 6 6 6 7 10 10 10 8 7
Wind_Direction
326 324 324 323 322 323 325 327 328 327 326 328 328 329 327 325 322 321 292 300 303 256 286 285 225 299 279 316 342 1 293 266 295 349 31 348 307 63 104 122 156 151 145 198 159 166 154 114 169 282 126 117 95 95
325 323 322 321 322 327 324 325 325 324 322 324 325 325 323 323 326 324 284 324 109 234 270 290 283 270 274 276 229 289 301 17 324 319 23 3 4 19 113 109 124 158 162 183 126 97 107 75 100 99 96 101 103 106
323 322 319 320 324 325 323 322 322 321 320 323 324 323 321 326 332 323 300 332 272 277 287 264 285 261 290 316 278 277 342 358 312 327 316 10 6 34 107 105 134 94 111 105 143 146 121 124 121 96 91 87 89 104
320 319 321 325 324 322 321 323 321 321 319 320 321 322 322 323 327 324 286 245 241 282 284 339 329 323 328 298 274 244 275 311 294 313 325 330 27 37 36 91 104 37 161 162 122 119 116 117 110 111 107 108 109 99
320 320 320 320 321 319 322 321 319 316 319 322 321 321 321 318 316 299 293 346 258 249 302 297 335 353 313 295 286 230 275 301 297 341 360 16 34 341 66 283 140 178 118 146 166 153 116 134 117 117 125 114 112 106
324 325 321 320 322 320 320 318 317 318 320 321 320 319 317 316 314 294 259 141 8 200 295 296 25 294 329 331 73 65 33 320 329 311 52 24 16 313 320 93 86 110 87 71 100 100 120 125 118 122 124 119 107 105
323 322 322 321 320 319 321 320 321 321 319 318 315 314 314 315 316 9 333 322 300 309 257 276 322 353 335 345 42 347 6 100 331 330 49 48 26 291 274 56 87 97 123 131 83 111 134 126 123 133 110 109 108 106
321 321 322 320 320 318 319 319 321 319 318 315 315 314 310 288 237 245 211 306 187 250 255 288 339 278 351 37 245 262 351 337 53 21 37 78 225 283 268 121 94 29 36 209 116 111 126 136 134 121 128 126 121 115
319 320 321 323 321 318 319 321 320 318 316 310 307 305 261 237 272 44 347 213 218 290 304 291 336 41 240 18 352 255 358 88 60 45 78 279 192 203 358 73 147 157 341 108 101 124 146 134 133 140 137 134 122 118
317 320 321 324 323 320 323 321 320 320 314 303 293 275 329 345 29 251 210 212 191 210 232 268 208 61 285 156 160 323 183 168 130 75 269 220 233 180 107 94 135 140 93 124 141 132 133 136 145 142 135 121 119 118
319 321 322 327 324 323 321 322 321 320 289 319 339 320 334 118 241 218 248 233 157 229 174 125 40 22 133 342 39 6 309 277 216 106 236 175 168 153 159 141 122 158 129 85 79 132 128 129 129 111 102 103 116 117
317 317 321 326 324 323 325 325 322 296 336 332 292 286 279 254 235 258 233 156 16 60 29 30 42 7 354 12 7 347 324 296 59 106 250 180 127 151 135 114 120 98 127 174 111 110 114 110 104 116 148 129 110 111
320 321 323 324 323 323 330 330 330 307 291 240 215 248 269 265 285 299 13 54 40 357 20 359 338 66 317 312 32 314 285 332 167 240 183 88 132 146 119 126 106 118 113 106 112 118 121 135 137 117 112 113 122 123
321 322 321 320 320 324 325 328 325 321 280 286 324 277 287 339 18 11 357 347 350 329 325 338 339 3 340 31 7 311 299 314 245 205 64 67 95 117 129 142 132 121 121 135 115 116 114 108 115 113 111 112 114 114
320 317 313 306 328 328 324 321 308 290 286 295 301 319 353 356 312 314 285 290 332 288 301 343 15 331 316 272 155 300 240 248 323 54 94 87 117 128 117 119 126 116 115 114 120 111 113 113 114 111 108 107 104 102
324 307 2 339 335 325 318 308 281 252 243 276 358 285 309 310 318 312 278 240 181 8 307 293 330 260 217 197 248 230 302 24 62 35 64 92 89 97 141 132 124 123 124 123 114 118 121 120 113 109 104 99 95 93
311 237 10 351 337 311 301 275 263 256 284 267 226 227 238 244 263 271 275 358 68 204 292 233 258 3 209 207 201 201 351 40 25 65 64 90 92 156 153 114 114 123 121 119 125 126 114 116 117 115 110 101 96 91
282 294 321 346 337 304 274 232 274 275 264 259 310 286 228 161 198 227 185 288 65 355 292 284 297 307 229 227 346 9 33 12 299 225 140 113 40 183 118 122 125 119 121 124 117 120 127 127 125 114 114 107 106 103
309 310 308 306 305 309 296 275 313 287 282 314 283 272 298 320 289 301 236 150 87 109 278 292 275 292 14 18 356 313 299 326 76 104 121 149 165 140 124 114 113 123 127 127 136 133 138 144 118 134 136 163 114 111
290 282 287 286 249 229 259 296 293 261 277 277 289 319 281 283 307 116 228 135 145 191 252 252 283 320 241 254 229 242 123 119 125 140 153 144 143 127 123 129 123 128 132 130 120 124 127 136 137 149 123 94 118 126
284 33 326 245 211 243 276 273 236 245 280 268 283 302 271 266 315 186 203 170 132 189 226 283 314 299 333 158 121 153 162 159 150 142 136 139 157 145 137 120 150 139 139 137 148 124 161 128 124 112 158 118 81 71
340 324 271 208 240 224 256 237 290 297 264 281 281 265 268 260 217 77 321 173 56 89 28 26 341 327 284 320 174 173 167 185 143 120 115 139 142 142 139 155 149 151 146 145 132 167 123 128 132 122 97 109 121 112
300 238 268 262 271 229 260 279 268 242 264 270 250 246 213 281 55 72 56 336 56 306 335 30 354 321 288 195 155 138 137 152 140 139 164 160 141 143 147 147 154 147 146 146 144 124 108 96 87 111 116 132 121 140
235 260 275 243 221 261 200 233 213 249 254 248 258 289 319 71 167 100 151 163 198 27 15 359 325 284 274 174 124 140 144 145 131 147 137 135 139 149 159 151 146 132 132 127 125 119 149 130 121 162 164 164 172 142
247 228 207 255 234 241 227 227 217 219 249 223 283 271 1 284 268 212 116 103 52 13 4 343 335 9 246 181 132 144 168 147 154 136 148 145 138 129 121 110 105 113 138 140 144 146 133 163 159 149 165 171 114 90
252 227 201 259 222 242 252 256 269 283 36 316 18 3 353 314 267 110 61 57 73 26 3 346 348 319 202 179 151 142 143 140 143 134 140 134 153 154 144 150 149 154 156 147 151 153 155 144 146 159 113 116 63 289
256 245 226 267 276 272 271 250 226 242 28 52 292 2 340 280 11 69 120 132 164 111 297 296 293 292 352 138 133 130 139 139 143 131 111 130 142 153 162 163 168 154 161 156 157 162 158 160 153 156 151 133 119 73
252 283 253 258 264 276 272 272 210 331 325 359 275 244 218 310 38 331 23 150 180 242 182 252 261 269 281 214 131 111 110 107 113 111 105 90 61 54 63 82 84 69 106 100 155 151 159 151 135 138 147 140 120 104
227 235 264 245 297 281 265 267 348 113 306 273 301 351 332 34 83 308 339 133 222 252 110 268 259 241 182 194 178 151 153 163 168 172 172 149 141 124 123 125 128 113 94 81 47 53 65 93 125 128 126 126 113 136
250 197 218 235 205 233 110 5 12 1 330 341 313 288 299 8 1 281 282 234 239 221 110 286 248 242 176 172 165 161 186 201 181 196 192 171 142 140 136 131 127 125 122 120 118 107 100 115 119 127 144 151 130 132
352 245 252 254 271 9 32 241 253 291 296 287 279 277 286 307 293 288 288 256 183 106 130 171 228 279 184 159 156 174 148 106 83 93 101 106 129 135 136 130 122 134 145 148 152 155 145 175 147 136 143 117 102 221
248 230 238 262 286 343 324 279 255 261 289 267 264 220 243 267 251 143 64 206 185 152 147 182 170 8 26 31 50 60 58 93 109 120 130 124 128 132 132 143 152 144 145 146 151 141 157 124 120 146 145 126 139 124
240 257 240 255 246 263 204 224 251 267 221 233 246 236 233 264 273 113 91 82 43 100 111 118 113 117 87 61 69 63 61 68 68 63 64 64 75 100 123 119 126 137 139 128 124 117 105 98 84 81 68 74 64 58